Temperature
13 13 14 14 14 15 15 15 15 15 14 14 14 13 13 13 13 13 13 13 13 13 13 13 14 14 14 14 14 14 14 14 14 14 14 14 13 13 13 14 14 15 15
11 12 12 13 13 14 14 14 14 14 14 14 14 13 13 12 13 13 13 13 13 13 13 13 13 13 13 13 14 14 14 14 14 13 13 12 12 13 13 13 13 13 13
10 10 11 11 12 12 13 14 14 14 14 13 13 13 13 12 12 13 13 13 13 13 13 13 13 13 13 13 13 13 13 13 13 13 12 12 12 12 12 12 12 12 12
9 9 9 10 10 11 12 13 13 13 13 13 13 13 12 12 12 12 12 12 13 13 13 13 13 13 13 13 13 13 13 13 12 12 12 12 12 12 12 12 12 12 11
8 8 8 9 9 10 11 11 12 12 12 13 13 13 12 12 12 12 12 12 12 12 12 12 12 13 13 12 12 12 12 12 12 12 12 12 12 12 13 13 12 12 11
8 8 8 8 9 9 10 10 11 11 12 12 12 12 12 12 12 12 12 12 12 12 12 12 12 13 13 12 12 12 12 12 11 11 12 12 12 13 13 13 13 13 12
9 9 9 9 9 9 9 10 10 11 11 12 12 12 12 12 12 12 12 12 12 12 12 12 12 12 12 12 12 12 11 11 12 12 12 12 12 12 12 13 13 13 12
10 10 10 9 9 9 9 9 9 10 10 11 11 12 12 12 12 12 12 12 11 11 12 12 12 12 12 12 12 12 12 12 12 12 12 11 11 11 11 12 11 12 11
10 10 10 9 9 9 9 9 9 9 9 10 10 11 11 11 12 12 12 11 11 11 11 11 11 12 12 12 12 12 12 12 12 12 12 11 11 11 11 12 11 12 12
9 9 9 9 9 9 9 9 9 9 9 9 10 10 10 11 12 12 12 11 11 11 11 11 11 11 12 11 11 12 12 11 11 11 11 11 11 11 11 11 12 13 12
8 8 8 8 8 9 8 8 8 9 9 9 9 9 10 10 11 11 11 11 12 12 12 11 11 11 11 11 11 11 11 11 10 10 10 10 10 10 10 10 11 12 12
6 6 6 7 8 8 9 9 8 8 8 8 8 8 9 9 9 11 11 11 11 12 12 11 11 11 11 11 11 11 11 11 10 10 10 10 10 10 9 9 9 10 10
5 5 5 6 7 7 8 8 8 8 9 9 9 8 8 8 8 9 10 11 11 11 11 11 11 11 10 10 10 10 10 10 10 10 10 10 9 9 8 8 9 9 8
4 4 4 5 6 6 7 8 9 9 9 9 8 8 8 8 8 8 10 10 10 11 11 11 10 10 10 9 9 9 10 10 10 10 9 9 9 8 9 9 9 9 8
4 4 4 4 5 5 7 7 8 8 9 8 8 8 8 8 8 8 9 10 10 10 11 10 9 9 9 9 9 9 9 9 9 9 9 9 9 9 9 9 9 10 10
3 3 4 4 4 5 6 7 8 8 8 8 8 8 8 8 8 8 9 10 10 10 10 10 10 10 10 10 10 9 9 9 9 9 9 9 9 9 9 9 10 10 10
3 3 3 3 3 4 5 6 7 7 7 7 7 7 7 7 8 8 8 9 10 10 10 11 11 11 11 10 10 10 10 9 9 9 10 9 9 9 9 9 9 10 10
3 3 3 3 3 4 4 6 7 7 7 7 7 7 7 7 7 8 8 9 9 9 11 11 11 11 11 11 11 10 10 9 9 9 9 9 9 10 9 10 10 9 9
3 3 3 3 3 3 4 6 7 7 7 7 6 6 6 7 7 7 8 8 8 9 11 11 11 11 11 11 11 10 10 9 9 10 9 9 10 10 10 10 9 9 9
3 3 2 3 3 4 5 6 7 7 7 6 6 6 6 6 6 7 7 8 8 9 11 11 11 11 11 11 10 10 10 10 9 10 9 9 10 10 10 10 9 9 9
3 3 3 3 4 5 6 7 7 7 7 6 6 6 6 6 7 7 8 8 9 10 11 11 11 11 11 10 10 10 10 10 10 10 10 10 10 10 10 10 9 9 9
3 3 4 4 5 5 6 6 6 6 6 6 6 6 6 6 7 8 9 9 10 10 11 11 12 11 11 11 11 10 10 10 10 10 10 10 10 10 10 10 10 9 9
4 4 4 5 5 6 6 6 6 6 6 5 5 5 6 7 9 9 10 10 10 11 11 12 12 11 11 11 11 10 11 11 10 10 10 10 10 10 10 10 9 9 9
4 4 4 5 5 6 6 6 6 5 5 5 6 6 7 9 10 10 10 10 11 11 12 12 12 12 11 11 11 11 11 11 10 10 10 10 10 10 10 10 10 10 9
4 5 5 5 6 6 6 6 6 6 6 7 7 8 9 10 11 11 11 11 11 11 11 11 11 11 11 11 11 11 11 10 10 10 10 10 10 10 10 10 10 10 10
5 6 6 6 6 6 7 7 7 7 7 8 9 9 10 10 11 11 11 11 11 11 11 11 11 11 11 10 10 10 10 10 10 10 10 10 10 10 10 10 10 10 10
Wind_Speed
16 15 12 11 10 11 11 11 11 10 10 10 10 10 11 12 12 11 11 10 9 8 7 8 8 9 9 10 11 12 11 10 8 4 6 10 10 10 9 9 10 11 13
16 16 14 13 12 11 12 13 13 13 13 12 11 10 10 11 10 10 9 7 6 5 5 4 5 5 6 6 7 10 10 10 9 10 9 9 9 9 9 9 10 12 13
17 17 16 16 15 14 13 14 14 15 15 14 12 11 10 9 9 9 7 6 6 5 5 5 5 6 5 3 2 1 3 6 9 11 10 9 9 9 10 11 12 11 13
15 16 16 16 17 16 15 15 15 16 17 16 14 12 10 10 9 8 7 5 5 5 5 5 5 5 4 5 5 6 7 8 8 9 9 9 9 10 11 12 11 10 10
12 13 14 14 16 17 16 16 15 15 17 17 15 13 11 10 9 8 7 5 3 3 3 3 4 5 6 6 7 9 11 9 8 7 7 7 8 9 10 11 11 11 10
14 14 13 14 15 15 15 16 15 15 15 16 17 14 13 11 7 4 7 5 2 0 2 2 4 8 12 13 13 13 12 11 9 6 6 8 9 8 8 9 11 10 9
16 16 15 15 15 15 16 15 15 14 14 14 16 16 15 12 13 10 7 6 4 2 2 3 6 9 11 13 14 15 13 11 6 7 10 10 9 8 8 8 6 8 8
19 18 18 17 17 17 16 15 14 13 12 12 14 16 15 14 15 12 9 9 6 4 3 4 7 9 9 11 12 13 12 10 9 10 10 10 10 8 6 8 10 10 8
21 21 20 19 19 18 17 16 15 13 13 12 11 13 15 14 16 15 12 10 8 7 6 6 8 9 7 8 11 13 13 11 14 17 15 13 13 10 5 5 8 8 8
23 22 22 20 19 19 18 17 15 14 14 13 10 10 12 13 16 17 15 11 9 9 8 7 7 9 6 3 10 12 12 11 12 13 12 11 10 8 4 1 5 6 8
23 23 23 21 20 19 18 16 15 15 15 13 11 7 6 9 13 18 17 11 10 10 10 9 8 11 8 3 6 10 12 12 11 11 10 9 8 7 7 7 7 3 4
21 22 23 22 21 19 17 16 15 15 15 14 11 7 2 4 6 14 17 14 7 9 9 9 10 13 11 8 8 11 11 10 9 8 8 7 8 8 9 10 11 11 10
20 21 22 23 20 19 17 16 15 14 14 12 9 7 4 1 4 8 15 13 6 6 8 14 16 16 15 11 12 10 8 7 7 7 7 8 9 9 9 9 9 9 8
21 20 18 18 19 18 15 14 14 13 12 11 8 7 6 5 3 7 11 11 10 11 12 15 15 12 11 12 10 7 6 6 6 7 8 8 8 8 7 7 7 8 8
21 20 17 16 17 16 14 12 12 11 8 7 7 6 8 9 9 10 11 14 13 13 15 13 13 12 12 11 9 8 7 7 7 8 8 8 8 7 7 6 5 6 7
18 17 15 13 12 13 13 12 13 12 6 7 8 8 8 9 13 12 12 14 18 19 16 14 13 13 12 11 10 9 9 9 9 8 8 8 8 8 7 7 6 6 6
17 15 12 11 11 12 13 13 11 9 8 9 9 10 9 10 13 14 11 11 18 20 14 13 13 13 12 11 10 10 10 10 9 8 8 8 8 8 8 7 6 6 5
15 14 12 10 11 12 14 14 13 11 10 8 8 10 10 12 14 16 14 11 11 14 13 13 13 13 12 12 11 10 10 11 9 9 9 9 8 8 7 7 7 6 5
10 7 7 9 10 11 13 13 12 11 10 8 6 8 10 10 12 16 17 11 14 15 13 12 13 13 12 12 11 10 11 11 11 10 9 9 8 8 7 7 7 5 2
5 8 9 8 9 11 12 13 11 10 9 7 6 6 8 8 9 11 13 14 14 15 14 12 13 13 13 12 11 11 11 11 12 10 10 9 8 7 7 7 7 7 5
4 5 9 10 10 11 11 10 8 7 6 5 5 6 11 11 14 17 17 17 16 15 13 12 13 13 13 13 12 13 13 12 12 11 10 9 8 7 7 7 6 6 6
2 2 3 6 7 7 7 7 6 5 4 4 4 6 13 14 17 19 19 18 16 14 14 13 13 13 14 14 14 13 13 13 12 11 10 9 8 7 7 7 6 6 6
3 3 3 4 4 5 5 5 4 3 3 5 7 9 12 16 19 20 20 18 16 15 14 13 13 13 14 14 13 13 13 13 13 12 11 10 9 8 7 7 7 6 6
2 3 4 4 5 5 5 4 4 6 7 7 8 12 16 17 19 20 19 16 15 15 14 14 13 15 17 14 13 13 13 12 13 13 14 11 11 9 9 8 8 9 9
2 3 3 4 4 5 6 6 6 6 6 8 12 15 16 17 18 18 17 15 16 14 15 14 12 13 17 17 15 13 12 10 7 10 13 12 12 11 10 10 9 10 10
2 2 3 3 4 4 4 4 3 3 5 10 14 15 15 16 16 16 15 14 13 11 11 11 12 13 14 15 15 11 12 14 11 8 10 12 13 13 12 11 13 12 12
Wind_Direction
354 350 342 322 294 268 255 252 249 249 248 250 261 277 286 290 293 290 290 297 293 296 296 285 276 273 266 256 246 236 226 218 207 144 129 128 125 127 129 125 114 95 83
339 337 337 333 325 311 292 277 263 254 248 246 252 266 276 281 285 286 293 300 300 306 315 321 323 311 297 282 259 239 226 211 181 149 138 135 132 129 131 126 113 100 94
331 327 326 326 327 326 320 304 281 263 252 248 245 254 262 267 273 278 288 293 291 298 308 322 333 341 353 7 5 184 178 163 151 143 139 139 140 141 134 118 110 111 105
322 319 318 319 320 321 320 314 298 276 259 247 241 242 244 249 255 262 273 282 291 305 313 317 329 345 18 69 78 93 100 106 117 128 131 139 146 155 142 130 122 116 113
290 295 300 306 309 312 313 310 305 291 270 253 241 232 228 232 238 240 251 255 277 315 331 338 14 40 59 90 104 104 104 103 104 113 130 145 151 161 146 131 121 119 115
265 273 275 282 289 292 295 297 299 298 284 263 244 231 221 221 168 205 260 234 238 302 41 54 101 104 96 90 97 101 111 122 133 144 151 140 141 135 126 133 139 133 122
275 278 275 273 278 281 285 292 299 302 298 277 252 236 223 204 167 197 238 240 218 152 91 70 90 106 121 116 106 100 88 81 107 122 118 118 116 115 132 137 127 120 111
281 282 279 277 279 281 281 285 292 298 298 290 268 245 227 201 177 192 209 227 216 182 143 119 112 117 118 124 123 111 96 74 80 96 97 94 91 84 84 102 113 115 115
281 281 279 278 278 276 275 278 283 289 292 288 282 262 236 203 178 185 202 211 205 190 167 145 132 121 110 123 125 118 107 91 73 78 81 84 71 57 44 139 155 161 141
289 289 284 277 275 272 270 273 275 280 282 281 277 271 251 219 182 183 201 209 190 178 161 140 103 119 126 152 144 134 124 118 114 106 101 106 98 89 54 110 187 180 151
290 290 286 279 274 267 264 264 266 269 275 278 273 265 262 248 186 183 199 212 188 185 173 165 134 122 120 112 157 143 135 133 128 125 120 116 110 106 102 75 40 54 130
289 289 285 279 273 268 264 259 257 261 265 268 267 252 239 283 233 194 196 222 238 188 172 152 130 125 115 108 117 121 134 149 142 139 135 130 121 108 92 80 67 62 60
281 283 282 276 269 265 264 261 254 248 253 261 259 241 196 189 268 215 194 204 226 181 137 114 126 128 121 110 118 135 160 157 149 147 138 127 113 107 108 104 96 96 95
277 275 273 272 267 260 255 252 250 248 250 256 257 236 196 166 219 226 194 180 151 132 123 122 129 134 122 118 142 166 177 157 156 141 129 124 126 139 144 141 146 150 133
276 272 264 258 261 261 254 248 254 254 256 261 257 227 196 188 196 212 192 174 167 151 144 147 150 150 150 157 163 165 154 150 150 138 137 143 149 148 138 131 140 140 133
272 266 261 253 246 249 252 247 227 231 185 200 230 225 209 190 170 180 191 166 152 151 158 160 161 161 161 161 159 157 158 156 152 148 150 153 152 149 146 149 153 138 129
272 262 252 244 237 240 249 246 234 199 186 195 202 198 195 171 156 159 165 153 151 160 174 167 166 166 164 162 160 159 158 152 153 155 151 150 150 153 155 156 152 145 138
277 258 243 235 234 237 239 235 226 210 195 197 189 188 185 173 156 149 140 135 158 182 189 172 170 168 167 166 164 159 153 155 164 159 152 152 155 156 157 161 159 154 145
280 247 234 231 230 232 231 225 216 205 194 189 175 173 182 170 149 147 151 171 181 197 203 178 174 171 170 168 163 159 157 163 166 164 158 162 162 160 158 158 137 116 171
270 240 232 231 226 224 221 212 200 188 184 187 184 174 161 166 170 165 178 188 193 198 203 183 178 175 173 170 167 166 164 164 167 174 163 169 171 165 156 157 153 165 170
275 255 230 219 216 213 206 195 179 177 188 194 198 187 174 188 189 181 185 189 194 195 201 188 179 179 177 176 176 177 175 172 175 179 170 174 175 172 168 165 164 170 162
244 251 201 198 202 199 187 171 164 169 178 201 215 204 192 200 191 183 185 187 192 198 198 189 183 183 184 183 182 183 185 182 183 185 182 180 181 183 181 178 176 175 177
220 201 196 204 207 179 185 175 167 181 208 221 226 212 193 193 183 179 181 184 191 199 191 185 187 185 185 184 186 190 194 190 188 190 194 192 192 196 196 193 195 199 204
186 191 190 200 203 192 190 190 203 216 220 220 196 176 177 180 174 173 176 181 191 193 184 185 189 185 182 183 187 194 199 197 193 194 201 207 205 205 206 207 216 222 227
183 177 179 185 188 189 197 208 209 207 204 173 161 165 170 171 169 169 174 179 185 185 183 184 186 183 183 190 195 200 178 169 197 208 195 211 219 217 219 221 227 236 241
157 154 163 170 181 193 200 189 161 157 156 155 157 160 162 164 164 166 169 169 173 179 182 186 191 189 187 195 202 190 154 162 184 225 227 213 219 224 225 232 239 243 251
Height
1488 1485 1481 1480 1478 1476 1474 1473 1471 1470 1468 1467 1465 1463 1461 1458 1455 1451 1448 1444 1439 1436 1433 1431 1430 1429 1428 1427 1427 1428 1430 1433 1437 1440 1444 1447 1450 1454 1457 1459 1461 1462 1462
1487 1484 1480 1476 1473 1469 1467 1467 1466 1465 1464 1462 1460 1458 1456 1454 1452 1448 1445 1441 1437 1434 1432 1430 1428 1426 1424 1422 1421 1422 1424 1427 1432 1436 1441 1445 1449 1453 1456 1459 1461 1462 1462
1483 1480 1477 1473 1469 1463 1460 1459 1459 1459 1458 1457 1455 1453 1451 1450 1448 1446 1442 1439 1436 1434 1432 1430 1428 1426 1422 1419 1417 1417 1419 1423 1428 1434 1438 1443 1448 1452 1456 1459 1462 1464 1465
1475 1473 1470 1466 1463 1458 1453 1452 1451 1451 1451 1450 1449 1447 1446 1445 1444 1443 1441 1438 1435 1433 1431 1430 1428 1426 1424 1421 1418 1417 1419 1422 1427 1432 1437 1442 1447 1453 1457 1460 1463 1466 1468
1464 1462 1460 1457 1454 1451 1448 1447 1445 1443 1442 1443 1443 1441 1440 1440 1441 1440 1439 1437 1434 1432 1431 1430 1429 1427 1426 1424 1422 1421 1422 1425 1429 1433 1439 1443 1448 1453 1457 1460 1463 1467 1469
1459 1455 1452 1451 1450 1447 1446 1443 1440 1437 1434 1434 1435 1435 1435 1435 1436 1436 1436 1436 1433 1431 1431 1430 1430 1429 1428 1427 1427 1427 1429 1431 1435 1438 1443 1447 1451 1454 1457 1461 1464 1467 1470
1453 1451 1448 1447 1446 1443 1441 1438 1434 1431 1428 1426 1427 1428 1429 1429 1430 1432 1433 1434 1433 1431 1431 1431 1431 1430 1431 1431 1432 1434 1436 1439 1442 1445 1447 1450 1453 1455 1459 1462 1464 1467 1470
1445 1443 1441 1440 1438 1436 1434 1431 1428 1425 1422 1420 1420 1421 1422 1423 1425 1427 1430 1431 1432 1431 1431 1432 1432 1433 1435 1436 1437 1438 1441 1443 1446 1448 1450 1452 1454 1456 1459 1462 1464 1466 1470
1437 1434 1432 1430 1428 1427 1426 1424 1422 1420 1418 1416 1413 1413 1415 1417 1419 1423 1426 1429 1430 1430 1430 1432 1433 1435 1437 1439 1440 1441 1443 1446 1448 1450 1452 1454 1456 1458 1461 1464 1467 1469 1471
1427 1425 1423 1421 1419 1418 1417 1417 1416 1414 1413 1410 1407 1406 1407 1410 1414 1418 1422 1426 1428 1428 1429 1431 1433 1435 1438 1440 1442 1443 1445 1447 1450 1452 1454 1456 1458 1460 1461 1464 1467 1469 1471
1417 1414 1412 1411 1410 1409 1409 1409 1409 1408 1406 1405 1402 1399 1399 1403 1407 1413 1418 1422 1425 1426 1428 1430 1432 1434 1437 1440 1443 1445 1446 1449 1452 1454 1456 1458 1460 1461 1463 1464 1465 1468 1470
1406 1403 1401 1400 1400 1399 1399 1400 1400 1400 1399 1398 1396 1394 1392 1395 1400 1407 1414 1418 1422 1425 1426 1428 1430 1433 1436 1440 1443 1445 1448 1451 1454 1456 1458 1460 1461 1463 1464 1464 1466 1467 1468
1394 1391 1390 1389 1389 1390 1391 1391 1392 1392 1392 1391 1390 1389 1389 1391 1394 1401 1409 1415 1419 1422 1424 1426 1429 1433 1437 1441 1444 1447 1450 1453 1455 1457 1459 1460 1462 1463 1465 1466 1467 1469 1470
1381 1378 1377 1377 1378 1380 1382 1383 1384 1384 1385 1384 1384 1384 1385 1386 1390 1397 1404 1411 1416 1420 1422 1425 1429 1433 1437 1441 1445 1448 1451 1453 1455 1457 1459 1460 1462 1465 1468 1470 1471 1473 1474
1368 1366 1366 1366 1367 1370 1372 1374 1376 1378 1379 1379 1379 1380 1382 1383 1386 1393 1400 1407 1412 1418 1421 1425 1430 1433 1438 1442 1445 1448 1450 1452 1455 1457 1459 1462 1464 1467 1469 1471 1472 1474 1475
1354 1353 1354 1355 1357 1360 1363 1366 1368 1371 1372 1374 1375 1376 1379 1380 1383 1389 1397 1405 1410 1416 1421 1426 1430 1433 1438 1442 1445 1447 1450 1453 1455 1458 1460 1463 1465 1467 1470 1472 1473 1475 1476
1342 1341 1342 1344 1347 1350 1354 1358 1361 1363 1365 1368 1369 1372 1374 1376 1380 1387 1394 1403 1409 1415 1421 1426 1429 1433 1437 1441 1445 1447 1450 1453 1455 1458 1461 1463 1466 1468 1470 1472 1473 1475 1475
1331 1330 1332 1335 1338 1342 1346 1350 1354 1357 1359 1362 1364 1367 1371 1374 1379 1386 1393 1401 1408 1415 1420 1424 1428 1432 1437 1441 1444 1447 1450 1453 1456 1459 1462 1464 1466 1468 1470 1471 1473 1474 1475
1323 1323 1324 1327 1331 1334 1338 1343 1347 1351 1355 1358 1361 1364 1368 1372 1378 1384 1391 1399 1406 1413 1418 1423 1427 1432 1436 1440 1444 1447 1450 1453 1456 1459 1462 1464 1466 1468 1469 1471 1471 1472 1473
1318 1318 1319 1322 1325 1328 1333 1337 1342 1345 1350 1354 1357 1361 1365 1369 1375 1381 1388 1397 1405 1411 1417 1421 1426 1430 1435 1439 1443 1446 1450 1452 1455 1458 1461 1463 1465 1467 1469 1470 1470 1471 1473
1315 1314 1315 1318 1321 1325 1330 1334 1337 1341 1344 1348 1352 1356 1360 1366 1372 1379 1386 1395 1402 1409 1414 1419 1424 1429 1433 1437 1441 1445 1449 1452 1454 1457 1460 1462 1464 1466 1468 1469 1470 1471 1472
1314 1314 1315 1318 1321 1325 1328 1331 1334 1337 1340 1343 1346 1350 1355 1362 1369 1377 1385 1393 1400 1406 1412 1417 1422 1426 1430 1434 1439 1443 1446 1450 1453 1455 1458 1460 1463 1465 1466 1468 1469 1470 1471
1314 1315 1317 1319 1322 1324 1327 1330 1331 1333 1335 1338 1340 1344 1349 1357 1367 1376 1384 1392 1399 1404 1410 1415 1419 1424 1428 1432 1436 1439 1443 1447 1450 1453 1456 1458 1461 1463 1464 1466 1467 1468 1469
1316 1317 1319 1320 1323 1325 1327 1328 1329 1330 1331 1332 1335 1340 1348 1357 1367 1375 1383 1390 1397 1403 1408 1412 1417 1421 1425 1429 1433 1437 1440 1444 1448 1450 1453 1456 1458 1460 1462 1463 1465 1466 1467
1318 1319 1320 1321 1323 1325 1326 1327 1327 1328 1329 1331 1337 1344 1352 1360 1368 1375 1383 1389 1395 1401 1406 1411 1415 1419 1423 1426 1430 1434 1437 1440 1444 1448 1450 1453 1455 1457 1459 1460 1461 1462 1462
1321 1321 1322 1323 1324 1325 1326 1326 1326 1327 1330 1335 1342 1348 1355 1362 1369 1376 1382 1387 1392 1398 1404 1409 1413 1417 1421 1425 1428 1431 1434 1437 1441 1444 1447 1450 1452 1453 1455 1456 1457 1457 1458